Location: Ammerl�gen
(47.2167°N, 9.6000°E)
Time: 20:32:55
(UTC+00:00)

N. Korean satellite - Visible Passes

Search period start: 21 September 2021 00:00
Search period end: 01 October 2021 00:00
Orbit: 448 x 498 km, 97.3° (Epoch: 20 September)

Date Brightness Start Highest point End Pass type
(mag) Time Alt. Az. Time Alt. Az. Time Alt. Az.
21 Sep 9.6 03:50:51 10° NE 03:53:21 18° E 03:55:52 10° SE visible
23 Sep 7.6 04:27:47 10° NNE 04:31:15 50° E 04:34:44 10° S visible
24 Sep 9.2 04:00:27 10° NE 04:03:22 23° E 04:06:18 10° SSE visible
25 Sep 10.0 03:34:02 10° ENE 03:35:23 12° E 03:36:44 10° ESE visible
26 Sep 7.0 04:37:37 10° NNE 04:41:11 68° ESE 04:44:45 10° S visible
27 Sep 8.7 04:10:07 10° NNE 04:13:20 31° E 04:16:32 10° SSE visible
28 Sep 9.8 03:43:10 10° NE 03:45:21 15° E 03:47:33 10° SE visible
30 Sep 8.1 04:19:47 10° NNE 04:23:12 40° E 04:26:39 10° S visible
